Showing default

YUNHAI 2-2A, 59280

Orbit data source: Space-Track

YUNHAI 2-2A, 59280 is a payload satellite owned by CASC (CN) in LEO that was launched on Thu, 21 Mar 2024 UTC via a CHANG ZHENG 2D/YZ-3 launch vehicle from the Jiuquan Satellite Launch Center, China (JSC). Payload-class satellites include a variety of spacecraft equipped with specific instruments for various scientific and technological missions. These include communications satellites like Starlink; space stations such as the ISS; scientific satellites like the Hubble; Earth observation satellites from companies like Planet Labs, Umbra, and HawkEye 360; GPS; miniature CubeSats for education and research; and military/defense satellites.

Loading next visibility...
Identifier
59280, 2024-052A
Orbit
LEO
Country
Flag of CNCN / PRC
Related business
Manufacturer
DFH Shenzhen
Mission
Operational Defense Meteo Radio Occ.
Bus & Motor
YH-2, Unknown motor
Mass
~100 kg wet, ~100 kg dry
Launch date (UTC)
2024-03-21 (2 years ago)
Launch vehicle
CHANG ZHENG 2D/YZ-3
Launch site
Jiuquan Satellite Launch Center, China (JSC)
Object type
Payload
Rocket body
Debris
Shape & HBR
Box + 2 Pan, 0.5 m
Radar Cross Section
0.166 m², Large (>1 m²)

Expand to show TLE details & history
Last TLE update: 22 hours ago

TLE from 22 hours ago
0 YUNHAI 2-2A
1 59280U 24052A   26172.51313741  .00000045  00000-0  82653-4 0  9997
2 59280  50.0105  64.3728 0011507 160.4421 199.6937 14.27961620 98840
Epoch: 2026-06-21T12:18Z
TLE epoch observation values (Epoch: 2026-06-21T12:18:55.072Z)
Latitude
-0.00003°
Longitude
-30.06902°
Altitude
806.86 km
Speed
7.447 km/s
True Right ascension
04h 17m 29s
True Declination
0° 00' 00"
Sunlit
Object was in daylight at epoch
Visualization orbit readout
Latitude
Unknown
Longitude
Unknown
Altitude
Unknown
Speed
Unknown
Apparent Right ascension
Unknown
Apparent Declination
Unknown
Sunlit
N/A
Visualization observer readout
Local Sidereal Time
21:25:51
Azimuth
Unknown
Elevation
Unknown
Doppler factor
Unknown
Orbital elements
Apogee altitude
807.549 km
Perigee altitude
791.031 km
Semi-major axis
7,177.427 km
Eccentricity
0.00115
Inclination
50.0105°
RAAN
64.3728°
Arg. of periapsis
160.4421°
True anomaly
199.64932°
Mean anomaly
199.6937°
Eccentric anomaly
199.67151°
Mean motion
3.56936 °/min
Orbital period
100.86 mins
BSTAR
0.000082653
Loading maneuver chart data...
Computing Atmospheric mass density...
Loading historical data...
Loading historical data...
Loading historical data...
Loading historical data...
Loading historical data...
Loading historical data...
Loading historical data...

Documentation

Showing up to 5 results
|